This is the latest recevied weather packets stored in our database for station/object N6ZHV-13. If no packets are shown the sender has not sent any weather packets the latest 10 day(s).
| Time | Temp. | Humidity | Pressure | Rain* | Wind** | Luminosity | Snow |
|---|---|---|---|---|---|---|---|
| 1788058930 | 27.22° C | 51% | 1005.4 hPa | 0 mm | - | - | - |
| 1788058631 | 27.22° C | 51% | 1005.4 hPa | 0 mm | - | - | - |
| 1788058331 | 27.22° C | 52% | 1005.4 hPa | 0 mm | - | - | - |
| 1788058031 | 27.22° C | 54% | 1005.4 hPa | 0 mm | - | - | - |
| 1788057731 | 27.22° C | 56% | 1005.4 hPa | 0 mm | - | - | - |
| 1788057431 | 26.67° C | 56% | 1005.3 hPa | 0 mm | - | - | - |
| 1788057131 | 26.67° C | 56% | 1005.3 hPa | 0 mm | - | - | - |
| 1788056831 | 26.67° C | 60% | 1005.2 hPa | 0 mm | - | - | - |
| 1788056531 | 26.67° C | 62% | 1005.4 hPa | 0 mm | - | - | - |
| 1788056231 | 26.67° C | 60% | 1005.4 hPa | 0 mm | - | - | - |
| 1788055931 | 26.67° C | 58% | 1005.3 hPa | 0 mm | - | - | - |
| 1788055631 | 27.22° C | 55% | 1005.4 hPa | 0 mm | - | - | - |
| 1788055331 | 27.78° C | 55% | 1005.3 hPa | 0 mm | - | - | - |
| 1788055031 | 28.33° C | 55% | 1005.3 hPa | 0 mm | - | - | - |
| 1788054731 | 28.33° C | 54% | 1005.3 hPa | 0 mm | - | - | - |
| 1788054431 | 28.33° C | 53% | 1005.2 hPa | 0 mm | - | - | - |
| 1788054131 | 28.89° C | 52% | 1005.2 hPa | 0 mm | - | - | - |
| 1788053831 | 28.89° C | 51% | 1005.2 hPa | 0 mm | - | - | - |
| 1788053531 | 29.44° C | 50% | 1005.2 hPa | 0 mm | - | - | - |
| 1788053231 | 30° C | 50% | 1005.2 hPa | 0 mm | - | - | - |
| 1788052931 | 30° C | 49% | 1005.2 hPa | 0 mm | - | - | - |
| 1788052631 | 30° C | 48% | 1005.2 hPa | 0 mm | - | - | - |
| 1788052331 | 30.56° C | 47% | 1005.3 hPa | 0 mm | - | - | - |
| 1788052031 | 30.56° C | 46% | 1005.3 hPa | 0 mm | - | - | - |
| 1788051731 | 30.56° C | 45% | 1005.4 hPa | 0 mm | - | - | - |
* Rain latest hour (hover to see other rain measurements)
** Current wind speed in m/s (hover to see current wind gust speed)